Hourly Data Report for November 18, 2019

SATURNA ISLAND CS
BRITISH COLUMBIA
Current Station Operator: ECCC - MSC

48°47'02.067" N
123°02'41.082" W
24.40 m
1017101
71473
WEZ

Download Data

Hourly Data (November 2019)
Hourly Data Report for November 18, 2019
TIME
LST
Temp Definition
°C
Dew Point Definition
°C
Rel Hum Definition
%
Precip. Amount Definition
mm

Wind Dir Definition
10's deg

Wind Spd Definition
km/h
Visibility Definition
km
Stn Press Definition
kPa
Hmdx Definition


Wind Chill Definition


Weather Definition


00:00 9.6 8.8 95 0.0 23 12   101.86     LegendNANA
01:00 9.7 8.6 93 0.0 23 10   101.82     LegendNANA
02:00 9.7 8.6 93 0.0 24 11   101.76     LegendNANA
03:00 9.2 8.4 95 0.0 24 9   101.67     LegendNANA
04:00 8.9 8.3 96 0.0 25 5   101.59     LegendNANA
05:00 9.0 8.4 96 0.0 24 10   101.54     LegendNANA
06:00 8.7 8.1 97 0.0 23 11   101.46     LegendNANA
07:00 8.4 8.0 97 0.0 22 3   101.42     LegendNANA
08:00 8.8 8.4 97 0.0 11 8   101.34     LegendNANA
09:00 8.9 8.4 97 0.0 6 6   101.18     LegendNANA
10:00 9.1 8.4 96 0.0 2 2   101.11     LegendNANA
11:00 9.2 7.9 92 0.0 4 6   100.99     LegendNANA
12:00 9.2 7.6 89 0.0 6 5   100.85     LegendNANA
13:00 9.2 7.2 87 0.0 10 14   100.71     LegendNANA
14:00 9.0 7.4 90 0.2 6 16   100.55     LegendNANA
15:00 9.3 7.8 91 0.0 6 15   100.45     LegendNANA
16:00 9.1 8.0 93 0.4 2 11   100.39     LegendNANA
17:00 8.9 8.3 96 1.2 33 7   100.23     LegendNANA
18:00 9.0 8.5 97 2.2 4 12   100.18     LegendNANA
19:00 8.9 8.5 97 3.2 3 17   100.10     LegendNANA
20:00 9.0 8.6 98 1.2 4 22   100.05     LegendNANA
21:00 9.0 8.7 98 2.0 35 10   100.10     LegendNANA
22:00 8.9 8.6 98 0.8 33 9   100.14     LegendNANA
23:00 8.8 8.5 98 1.0 32 11   100.14     LegendNANA

Notes on Data Quality.

Legend

  • E = Estimated
  • M = Missing
  • NA = Not Available*
  • [empty] = Indicates an unobserved value
Date modified: